TimeAKDT,TemperatureF,Dew PointF,Humidity,Sea Level PressureIn,VisibilityMPH,Wind Direction,Wind SpeedMPH,Gust SpeedMPH,PrecipitationIn,Events,Conditions,WindDirDegrees,DateUTC
12:16 AM,46.4,42.8,87,29.38,10.0,ESE,6.9,-,N/A,,Clear,120,2012-10-14 08:16:00
12:36 AM,46.4,42.8,87,29.35,10.0,ESE,9.2,-,N/A,,Scattered Clouds,120,2012-10-14 08:36:00
12:56 AM,46.4,42.8,87,29.32,10.0,SE,6.9,-,N/A,,Mostly Cloudy,130,2012-10-14 08:56:00
1:16 AM,46.4,41.0,81,29.29,10.0,SE,9.2,-,N/A,,Mostly Cloudy,140,2012-10-14 09:16:00
1:36 AM,46.4,41.0,81,29.25,10.0,SE,8.1,-,N/A,,Overcast,140,2012-10-14 09:36:00
1:56 AM,46.4,41.0,81,29.22,10.0,SE,8.1,-,N/A,,Overcast,130,2012-10-14 09:56:00
2:16 AM,46.4,41.0,81,29.19,10.0,SE,6.9,-,N/A,,Overcast,130,2012-10-14 10:16:00
2:36 AM,46.4,41.0,81,29.16,10.0,SSE,5.8,-,N/A,,Overcast,160,2012-10-14 10:36:00
2:56 AM,48.2,39.2,71,29.14,10.0,ESE,8.1,-,N/A,,Overcast,110,2012-10-14 10:56:00
3:16 AM,50.0,37.4,62,29.11,10.0,ESE,8.1,-,N/A,,Overcast,120,2012-10-14 11:16:00
3:36 AM,48.2,39.2,71,29.09,10.0,ESE,5.8,-,N/A,,Overcast,110,2012-10-14 11:36:00
3:56 AM,51.8,39.2,62,29.08,10.0,East,10.4,21.9,N/A,,Overcast,90,2012-10-14 11:56:00
4:16 AM,50.0,39.2,66,29.07,10.0,East,11.5,18.4,N/A,,Overcast,90,2012-10-14 12:16:00
4:36 AM,48.2,39.2,71,29.06,10.0,ESE,12.7,-,N/A,,Overcast,110,2012-10-14 12:36:00
4:56 AM,48.2,41.0,76,29.05,10.0,East,6.9,-,N/A,,Overcast,90,2012-10-14 12:56:00
5:16 AM,46.4,41.0,81,29.05,10.0,East,6.9,-,N/A,,Overcast,80,2012-10-14 13:16:00
5:36 AM,46.4,41.0,81,29.04,10.0,East,9.2,-,N/A,,Overcast,90,2012-10-14 13:36:00
5:56 AM,46.4,41.0,81,29.05,7.0,SSE,6.9,-,N/A,,Overcast,160,2012-10-14 13:56:00
6:16 AM,44.6,41.0,87,29.05,7.0,South,6.9,-,N/A,,Overcast,170,2012-10-14 14:16:00
6:36 AM,44.6,41.0,87,29.06,7.0,Calm,Calm,-,N/A,,Overcast,0,2012-10-14 14:36:00
6:56 AM,46.4,42.8,87,29.06,7.0,ESE,4.6,-,N/A,,Overcast,110,2012-10-14 14:56:00
7:16 AM,46.4,41.0,81,29.06,10.0,East,9.2,-,N/A,,Overcast,90,2012-10-14 15:16:00
7:36 AM,46.4,41.0,81,29.06,10.0,East,10.4,-,N/A,,Overcast,100,2012-10-14 15:36:00
7:56 AM,48.2,41.0,76,29.07,10.0,Calm,Calm,-,N/A,,Mostly Cloudy,0,2012-10-14 15:56:00
8:16 AM,46.4,41.0,81,29.08,10.0,West,4.6,-,N/A,,Mostly Cloudy,260,2012-10-14 16:16:00
8:36 AM,48.2,41.0,76,29.07,10.0,ESE,9.2,-,N/A,,Mostly Cloudy,120,2012-10-14 16:36:00
8:56 AM,48.2,42.8,82,29.07,10.0,ESE,9.2,-,N/A,,Mostly Cloudy,120,2012-10-14 16:56:00
9:16 AM,48.2,41.0,76,29.07,10.0,ESE,12.7,23.0,N/A,,Mostly Cloudy,120,2012-10-14 17:16:00
9:36 AM,46.4,42.8,87,29.07,10.0,East,12.7,17.3,N/A,,Mostly Cloudy,90,2012-10-14 17:36:00
9:56 AM,46.4,42.8,87,29.09,10.0,SSE,8.1,-,N/A,,Overcast,150,2012-10-14 17:56:00
10:16 AM,48.2,42.8,82,29.11,10.0,Calm,Calm,-,N/A,,Overcast,0,2012-10-14 18:16:00
10:36 AM,48.2,44.6,87,29.11,10.0,East,5.8,-,N/A,,Overcast,80,2012-10-14 18:36:00
10:56 AM,46.4,42.8,87,29.11,10.0,East,12.7,-,N/A,,Mostly Cloudy,80,2012-10-14 18:56:00
11:16 AM,46.4,44.6,93,29.11,10.0,East,11.5,-,N/A,,Mostly Cloudy,90,2012-10-14 19:16:00
11:36 AM,48.2,44.6,87,29.10,10.0,East,10.4,-,N/A,,Mostly Cloudy,100,2012-10-14 19:36:00
11:56 AM,48.2,44.6,87,29.10,10.0,ESE,11.5,17.3,N/A,,Overcast,110,2012-10-14 19:56:00
12:16 PM,48.2,44.6,87,29.09,10.0,East,12.7,19.6,N/A,,Overcast,90,2012-10-14 20:16:00
12:36 PM,48.2,44.6,87,29.08,10.0,East,12.7,-,N/A,,Overcast,100,2012-10-14 20:36:00
1:16 PM,48.2,44.6,87,29.07,7.0,East,10.4,-,N/A,,Overcast,90,2012-10-14 21:16:00
1:36 PM,48.2,44.6,87,29.06,7.0,East,8.1,-,N/A,,Overcast,100,2012-10-14 21:36:00
1:56 PM,48.2,44.6,87,29.06,7.0,SE,9.2,-,N/A,,Overcast,130,2012-10-14 21:56:00
2:16 PM,48.2,42.8,82,29.05,7.0,ESE,15.0,24.2,N/A,,Overcast,120,2012-10-14 22:16:00
2:36 PM,48.2,42.8,82,29.05,7.0,ESE,13.8,21.9,N/A,,Overcast,120,2012-10-14 22:36:00
2:56 PM,48.2,42.8,82,29.05,10.0,SE,17.3,23.0,N/A,,Mostly Cloudy,130,2012-10-14 22:56:00
3:16 PM,48.2,42.8,82,29.05,10.0,SE,17.3,23.0,N/A,,Mostly Cloudy,130,2012-10-14 23:16:00
3:36 PM,48.2,42.8,82,29.05,10.0,ESE,15.0,21.9,N/A,,Mostly Cloudy,110,2012-10-14 23:36:00
3:56 PM,48.2,42.8,82,29.05,10.0,ESE,12.7,-,N/A,,Mostly Cloudy,110,2012-10-14 23:56:00
4:16 PM,48.2,42.8,82,29.05,5.0,ESE,12.7,-,N/A,,Overcast,120,2012-10-15 00:16:00
4:36 PM,48.2,42.8,82,29.06,5.0,ESE,11.5,18.4,N/A,,Overcast,120,2012-10-15 00:36:00
4:56 PM,48.2,42.8,82,29.06,5.0,ESE,16.1,24.2,N/A,,Overcast,120,2012-10-15 00:56:00
5:16 PM,48.2,42.8,82,29.06,5.0,ESE,17.3,20.7,N/A,,Overcast,120,2012-10-15 01:16:00
5:36 PM,48.2,44.6,87,29.08,5.0,ESE,13.8,18.4,N/A,,Overcast,110,2012-10-15 01:36:00
5:56 PM,48.2,44.6,87,29.11,1.0,ESE,8.1,-,N/A,,Overcast,110,2012-10-15 01:56:00
6:16 PM,48.2,44.6,87,29.13,1.0,ESE,5.8,16.1,N/A,,Overcast,120,2012-10-15 02:16:00
6:36 PM,48.2,44.6,87,29.15,1.0,SSE,5.8,-,N/A,,Overcast,160,2012-10-15 02:36:00
6:56 PM,51.8,44.6,76,29.18,1.0,Calm,Calm,-,N/A,,Overcast,0,2012-10-15 02:56:00
7:16 PM,51.8,44.6,76,29.19,1.0,South,13.8,19.6,N/A,,Overcast,180,2012-10-15 03:16:00
7:36 PM,51.8,42.8,71,29.22,1.0,South,8.1,26.5,N/A,,Overcast,190,2012-10-15 03:36:00
7:56 PM,51.8,44.6,76,29.24,10.0,South,9.2,19.6,N/A,,Overcast,170,2012-10-15 03:56:00
8:16 PM,51.8,44.6,76,29.25,10.0,SSE,11.5,17.3,N/A,,Overcast,160,2012-10-15 04:16:00
8:36 PM,51.8,44.6,76,29.27,10.0,South,6.9,-,N/A,,Overcast,170,2012-10-15 04:36:00
8:56 PM,51.8,44.6,76,29.28,10.0,South,10.4,-,N/A,,Overcast,180,2012-10-15 04:56:00
9:16 PM,50.0,46.4,87,29.30,10.0,Calm,Calm,-,N/A,,Overcast,0,2012-10-15 05:16:00
9:36 PM,50.0,46.4,87,29.31,10.0,Calm,Calm,-,N/A,,Overcast,0,2012-10-15 05:36:00
9:56 PM,50.0,46.4,87,29.33,10.0,Calm,Calm,-,N/A,,Overcast,0,2012-10-15 05:56:00
10:16 PM,51.8,44.6,76,29.34,10.0,SSW,13.8,20.7,N/A,,Overcast,200,2012-10-15 06:16:00
10:36 PM,51.8,44.6,76,29.37,10.0,SW,6.9,-,N/A,,Overcast,220,2012-10-15 06:36:00
10:56 PM,51.8,44.6,76,29.39,10.0,SSW,11.5,17.3,N/A,,Overcast,200,2012-10-15 06:56:00
11:16 PM,51.8,44.6,76,29.41,10.0,South,9.2,-,N/A,,Overcast,170,2012-10-15 07:16:00
11:36 PM,51.8,42.8,71,29.43,10.0,SSW,12.7,23.0,N/A,,Overcast,200,2012-10-15 07:36:00
11:56 PM,51.8,42.8,71,29.44,10.0,SW,10.4,17.3,N/A,,Overcast,220,2012-10-15 07:56:00